Harlan, IA

11:01 PM CST on December 08, 2019 (GMT -0600)
Harlan Municipal

Weather History for KHNR - October, 2019

Change the Weather History Date:

Thursday, October 24, 2019

  Actual Average Record
Temperature  
Mean Temperature 37 °F -  
Max Temperature 48 °F 60 °F 79 °F (1952)
Min Temperature 26 °F 38 °F 23 °F (1966)
Degree Days  
Heating Degree Days 28    
Moisture  
Dew Point 29 °F    
Average Humidity 72    
Maximum Humidity 100    
Minimum Humidity 34    
Precipitation  
Precipitation 0.00 in - - ()
Sea Level Pressure  
Sea Level Pressure 30.35 in    
Wind  
Wind Speed 7 mph ()    
Max Wind Speed 13 mph    
Max Gust Speed 20 mph    
Visibility 9.9 miles    
Events      
Averages and records for this station are not official NWS values.
T = Trace of Precipitation, MM = Missing Value Source: Averaged Metar Reports

Daily Weather History Graph

Daily Weather History Graph

Search for Another Location

Airport or City:

Astronomy

Oct. 24, 2019 Rise Set
Actual Time 7:43 AM CDT 6:26 PM CDT
Civil Twilight 7:15 AM CDT 6:55 PM CDT
Nautical Twilight 6:42 AM CDT 7:27 PM CDT
Astronomical Twilight 6:10 AM CDT 7:59 PM CDT
Moon 3:09 AM CDT (10/24) 4:59 PM CDT (10/24)
Length of Visible Light 11h 40m
Length of Day
10h 43m
Waning Crescent, 16% of the Moon is Illuminated
Oct 24
Waning Crescent
Oct 27
New
Nov 4
First Quarter
Nov 12
Full
Nov 19
Last Quarter

Hourly Weather History & Observations

Time (CDT) Temp. Windchill Dew Point Humidity Pressure Visibility Wind Dir Wind Speed Gust Speed Precip Events Conditions
12:15 AM 41.0 °F 34.3 °F 35.6 °F 81% 30.25 in 10.0 mi NW 11.5 mph 19.6 mph N/A   Overcast
12:35 AM 39.2 °F 32.5 °F 35.6 °F 87% 30.25 in 10.0 mi NW 10.4 mph 17.3 mph N/A   Overcast
12:55 AM 39.2 °F 32.0 °F 35.6 °F 87% 30.25 in 10.0 mi NNW 11.5 mph - N/A   Overcast
1:15 AM 37.4 °F 32.1 °F 35.6 °F 93% 30.26 in 10.0 mi NNW 6.9 mph - N/A   Mostly Cloudy
1:35 AM 37.4 °F 31.4 °F 35.6 °F 93% 30.26 in 10.0 mi NNW 8.1 mph - N/A   Mostly Cloudy
1:55 AM 37.4 °F 31.4 °F 35.6 °F 93% 30.26 in 10.0 mi NW 8.1 mph - N/A   Overcast
2:15 AM 35.6 °F 29.9 °F 33.8 °F 93% 30.27 in 10.0 mi WNW 6.9 mph - N/A   Mostly Cloudy
2:35 AM 37.4 °F 31.4 °F 33.8 °F 87% 30.29 in 10.0 mi NW 8.1 mph - N/A   Overcast
2:55 AM 37.4 °F 29.8 °F 33.8 °F 87% 30.30 in 10.0 mi NW 11.5 mph - N/A   Overcast
3:15 AM 37.4 °F 30.3 °F 33.8 °F 87% 30.29 in 10.0 mi NW 10.4 mph 18.4 mph N/A   Overcast
3:35 AM 37.4 °F 30.3 °F 33.8 °F 87% 30.28 in 10.0 mi NNW 10.4 mph 16.1 mph N/A   Overcast
3:55 AM 35.6 °F 28.6 °F 32.0 °F 87% 30.28 in 10.0 mi NNW 9.2 mph 16.1 mph N/A   Scattered Clouds
4:15 AM 35.6 °F 29.9 °F 32.0 °F 87% 30.27 in 10.0 mi NNW 6.9 mph - N/A   Clear
4:35 AM 35.6 °F 31.7 °F 32.0 °F 87% 30.29 in 10.0 mi NNW 4.6 mph 11.5 mph N/A   Clear
4:55 AM 33.8 °F - 32.0 °F 93% 30.31 in 10.0 mi Calm Calm - N/A   Clear
5:15 AM 33.8 °F 27.0 °F 32.0 °F 93% 30.30 in 10.0 mi NW 8.1 mph - N/A   Mostly Cloudy
5:35 AM 33.8 °F 26.4 °F 32.0 °F 93% 30.31 in 10.0 mi NW 9.2 mph - N/A   Mostly Cloudy
5:55 AM 33.8 °F 27.0 °F 32.0 °F 93% 30.31 in 10.0 mi NNW 8.1 mph - N/A   Overcast
6:15 AM 33.8 °F 27.0 °F 32.0 °F 93% 30.32 in 10.0 mi NNW 8.1 mph - N/A   Overcast
6:35 AM 33.8 °F 27.7 °F 32.0 °F 93% 30.33 in 10.0 mi NNW 6.9 mph - N/A   Overcast
6:55 AM 33.8 °F 28.6 °F 32.0 °F 93% 30.35 in 10.0 mi NNW 5.8 mph - N/A   Overcast
7:15 AM 33.8 °F 30.8 °F 32.0 °F 93% 30.35 in 10.0 mi North 3.5 mph - N/A   Scattered Clouds
7:35 AM 33.8 °F 29.6 °F 32.0 °F 93% 30.35 in 10.0 mi NNW 4.6 mph - N/A   Mostly Cloudy
7:55 AM 33.8 °F - 32.0 °F 93% 30.36 in 10.0 mi Calm Calm - N/A   Overcast
8:15 AM 33.8 °F 28.6 °F 32.0 °F 93% 30.37 in 10.0 mi NNW 5.8 mph - N/A   Mostly Cloudy
8:35 AM 33.8 °F - 32.0 °F 93% 30.38 in 10.0 mi Calm Calm - N/A   Partly Cloudy
8:55 AM 33.8 °F 29.6 °F 32.0 °F 93% 30.40 in 10.0 mi NNW 4.6 mph - N/A   Clear
9:15 AM 35.6 °F 29.2 °F 32.0 °F 87% 30.41 in 10.0 mi NNW 8.1 mph - N/A   Clear
9:35 AM 35.6 °F 28.6 °F 32.0 °F 87% 30.42 in 10.0 mi NNW 9.2 mph - N/A   Clear
9:55 AM 37.4 °F 30.8 °F 30.2 °F 75% 30.42 in 10.0 mi North 9.2 mph - N/A   Clear
10:15 AM 39.2 °F 32.0 °F 30.2 °F 70% 30.42 in 10.0 mi NNW 11.5 mph - N/A   Clear
10:35 AM 39.2 °F 32.5 °F 30.2 °F 70% 30.42 in 10.0 mi North 10.4 mph - N/A   Clear
10:55 AM 41.0 °F 35.2 °F 28.4 °F 61% 30.42 in 10.0 mi North 9.2 mph 17.3 mph N/A   Clear
11:15 AM 41.0 °F 35.2 °F 26.6 °F 57% 30.43 in 10.0 mi North 9.2 mph - N/A   Clear
11:35 AM 41.0 °F 34.7 °F 26.6 °F 57% 30.42 in 10.0 mi North 10.4 mph - N/A   Clear
11:55 AM 42.8 °F 38.0 °F 26.6 °F 53% 30.42 in 10.0 mi North 8.1 mph - N/A   Clear
12:15 PM 42.8 °F 38.6 °F 26.6 °F 53% 30.41 in 10.0 mi North 6.9 mph 15.0 mph N/A   Clear
12:35 PM 44.6 °F 40.7 °F 24.8 °F 46% 30.41 in 10.0 mi NNW 6.9 mph 12.7 mph N/A   Clear
12:55 PM 44.6 °F 41.4 °F 23.0 °F 43% 30.40 in 10.0 mi NNW 5.8 mph 12.7 mph N/A   Clear
1:15 PM 44.6 °F 40.7 °F 23.0 °F 43% 30.40 in 10.0 mi North 6.9 mph 12.7 mph N/A   Partly Cloudy
1:35 PM 46.4 °F 41.1 °F 23.0 °F 40% 30.39 in 10.0 mi NNE 11.5 mph 18.4 mph N/A   Clear
1:55 PM 46.4 °F 40.7 °F 23.0 °F 40% 30.38 in 10.0 mi NW 12.7 mph - N/A   Clear
2:15 PM 46.4 °F 42.9 °F 23.0 °F 40% 30.37 in 10.0 mi NNW 6.9 mph 13.8 mph N/A   Clear
2:35 PM 46.4 °F 41.5 °F 23.0 °F 40% 30.36 in 10.0 mi North 10.4 mph - N/A   Partly Cloudy
2:55 PM 48.2 °F - 23.0 °F 37% 30.36 in 10.0 mi NNW 10.4 mph - N/A   Scattered Clouds
3:15 PM 46.4 °F 42.9 °F 23.0 °F 40% 30.35 in 10.0 mi North 6.9 mph 13.8 mph N/A   Partly Cloudy
3:35 PM 46.4 °F 43.5 °F 21.2 °F 37% 30.33 in 10.0 mi Variable 5.8 mph 11.5 mph N/A   Clear
3:55 PM 48.2 °F - 21.2 °F 34% 30.32 in 10.0 mi NNW 8.1 mph 15.0 mph N/A   Clear
4:15 PM 46.4 °F 41.9 °F 23.0 °F 40% 30.32 in 10.0 mi North 9.2 mph - N/A   Partly Cloudy
4:35 PM 46.4 °F 42.9 °F 21.2 °F 37% 30.33 in 10.0 mi NNW 6.9 mph - N/A   Clear
4:55 PM 46.4 °F 42.9 °F 23.0 °F 40% 30.34 in 10.0 mi NW 6.9 mph - N/A   Clear
5:15 PM 46.4 °F 42.9 °F 23.0 °F 40% 30.34 in 10.0 mi NNW 6.9 mph - N/A   Clear
5:35 PM 46.4 °F 44.3 °F 23.0 °F 40% 30.35 in 10.0 mi NW 4.6 mph - N/A   Partly Cloudy
5:55 PM 44.6 °F 41.4 °F 23.0 °F 43% 30.35 in 10.0 mi NW 5.8 mph - N/A   Partly Cloudy
6:15 PM 42.8 °F 40.1 °F 24.8 °F 49% 30.36 in 10.0 mi WNW 4.6 mph - N/A   Clear
6:35 PM 39.2 °F 35.9 °F 26.6 °F 61% 30.36 in 10.0 mi WNW 4.6 mph - N/A   Clear
6:55 PM 37.4 °F 32.1 °F 26.6 °F 65% 30.36 in 10.0 mi WNW 6.9 mph - N/A   Clear
7:15 PM 35.6 °F - 28.4 °F 75% 30.37 in 10.0 mi Calm Calm - N/A   Clear
7:35 PM 35.6 °F - 28.4 °F 75% 30.37 in 10.0 mi Calm Calm - N/A   Clear
7:55 PM 35.6 °F - 28.4 °F 75% 30.37 in 6.0 mi Calm Calm - N/A   Haze
8:15 PM 33.8 °F - 28.4 °F 81% 30.38 in 10.0 mi Calm Calm - N/A   Clear
8:35 PM 33.8 °F - 26.6 °F 75% 30.38 in 10.0 mi Calm Calm - N/A   Clear
8:55 PM 33.8 °F - 26.6 °F 75% 30.38 in 10.0 mi Calm Calm - N/A   Clear
9:15 PM 32.0 °F - 28.4 °F 87% 30.38 in 10.0 mi Calm Calm - N/A   Clear
9:35 PM 32.0 °F - 28.4 °F 87% 30.38 in 10.0 mi Calm Calm - N/A   Clear
9:55 PM 30.2 °F - 26.6 °F 86% 30.38 in 10.0 mi Calm Calm - N/A   Clear
10:15 PM 30.2 °F - 26.6 °F 86% 30.38 in 10.0 mi Calm Calm - N/A   Clear
10:55 PM 26.6 °F - 26.6 °F 100% 30.39 in 10.0 mi Calm Calm - N/A   Clear
11:35 PM 28.4 °F - 26.6 °F 93% 30.39 in 10.0 mi Calm Calm - N/A   Clear
11:55 PM 26.6 °F - 26.6 °F 100% 30.38 in 10.0 mi Calm Calm - N/A   Clear